Flag for U.S.A. Weather past 2 weeks in Wailuku, Hawaii, U.S.A.

Now
72 °F

Light rain. Fog.


Feels Like: 70 °F
Forecast: 60 / 83 °F
Wind: 8 mph from North

Location: Kahului Airport

Current Time: Feb 1, 2015 at 2:22:31 PM

Latest Report: Feb 1, 2015 at 1:54 PM


Visibility: 6 mi

Pressure: 29.96 "Hg

Humidity: 87%

Dew point: 68 °F

Location of WailukuLocation

Historic Weather in Wailuku — Graph

°F

Wailuku temperature yesterday

Maximum temperature yesterday: 81 °F (at 1:54 PM)
Minimum temperature yesterday: 64 °F (at 5:12 AM)
Average temperature yesterday: 73 °F

Past Weeks' High & Low Weather Summary

 TemperatureHumidityPressure
High85 °F (Jan 19, 2:54 PM)100% (Jan 24, 3:54 PM)30.11 "Hg (Jan 24, 3:54 PM)
Low59 °F (Jan 18, 2:54 AM)41% (Jan 17, 2:54 PM)29.85 "Hg (Jan 29, 4:54 PM)
Average72 °F77%30.00 "Hg
* Reported Jan 17 12:54 PM — Feb 1 12:54 PM, Wailuku, Weather by CustomWeather, © 2014

Note: Actual official high and low records may vary slightly from our data, if they occured in-between our weather recording intervals... More about our weather records

Advertising

Wailuku weather history for previous 24 hours

 ConditionsComfort  
Time TempWeatherWind HumidityBarometerVisibility
12:54 PM
Feb 1
73 °FMore clouds than sun.12 mph84%30.00 "Hg7 mi
11:54 AM73 °FMore clouds than sun.14 mph88%30.01 "Hg10 mi
11:01 AM73 °FCloudy.15 mph89%30.01 "Hg10 mi
9:54 AM71 °FLight rain. Fog.12 mph90%30.08 "Hg2 mi
8:54 AM72 °FLight rain. Fog.15 mph92%30.04 "Hg5 mi
7:54 AM72 °FCloudy.14 mph87%30.02 "Hg8 mi
6:54 AM72 °FLight rain. Overcast.13 mph87%30.01 "Hg7 mi
5:54 AM72 °FPartly cloudy.15 mph84%30.00 "Hg10 mi
4:54 AM73 °FMostly cloudy.14 mph84%29.99 "Hg10 mi
3:54 AM71 °FLight rain. Overcast.3 mph90%29.99 "Hg10 mi
3:24 AM72 °FRain. Fog.8 mph94%29.98 "Hg6 mi
3:17 AM72 °FRain. Fog.3 mph94%29.98 "Hg4 mi
2:54 AM72 °FRain. Fog.5 mph87%29.99 "Hg5 mi
1:54 AM74 °FPassing clouds.7 mph79%30.01 "Hg10 mi
12:54 AM73 °FPartly cloudy.10 mph84%30.03 "Hg10 mi
12:43 AM73 °FOvercast.13 mph83%30.02 "Hg10 mi
12:01 AM70 °FPassing clouds.7 mph83%30.03 "Hg10 mi
10:54 PM
Jan 31
70 °FPartly cloudy.3 mph84%30.04 "Hg10 mi
9:54 PM72 °FPartly cloudy.No wind91%30.04 "Hg7 mi
8:54 PM75 °FPartly cloudy.7 mph82%30.03 "Hg9 mi
7:54 PM75 °FPartly cloudy.7 mph82%30.02 "Hg9 mi
6:54 PM75 °FPartly cloudy.7 mph82%30.01 "Hg9 mi
5:54 PM76 °FBroken clouds.10 mph77%29.99 "Hg9 mi
4:54 PM78 °FBroken clouds.9 mph71%29.98 "Hg9 mi
3:54 PM78 °FBroken clouds.9 mph71%29.97 "Hg10 mi
2:54 PM80 °FBroken clouds.12 mph69%29.97 "Hg10 mi
Weather by CustomWeather, © 2014

See weather overviewHow to use our weather pages